Location: Presov
(49.0000°N, 21.2500°E)
Time: 06:49:44
(UTC+02:00)

Transit 2A Rocket - Pass Details

Date: 18 April 2021
Orbit: 594 x 909 km, 66.7° (Epoch: 07 May)

Event Time Altitude Azimuth Distance (km) Brightness Sun altitude
Rises 15:54:38 0° 194° (SSW) 2,961 8.5 33.9°
Reaches altitude 10° 15:57:04 10° 187° (S) 2,015 7.7 33.5°
Maximum altitude 16:01:16 41° 118° (ESE) 897 5.4 32.9°
Drops below altitude 10° 16:05:21 10° 48° (NE) 1,944 6.7 32.3°
Sets 16:07:39 0° 41° (NE) 2,843 7.5 31.9°
